Date,TemperatureHighF,TemperatureAvgF,TemperatureLowF,DewpointHighF,DewpointAvgF,DewpointLowF,HumidityHigh,HumidityAvg,HumidityLow,PressureMaxIn,PressureMinIn,WindSpeedMaxMPH,WindSpeedAvgMPH,GustSpeedMaxMPH,PrecipitationSumIn
2013-1-1,50,45,39,39,33,26,73,64,46,29.99,29.86,1,0,0,0.00
2013-1-2,41,37,33,34,32,25,86,79,73,30.20,29.96,0,0,0,0.00
2013-1-3,40,34,27,26,24,20,83,67,53,30.23,30.13,0,0,0,0.00
2013-1-4,45,34,27,27,22,20,77,62,45,30.22,30.11,2,0,5,0.00
2013-1-5,49,39,29,33,24,20,80,55,37,30.36,30.16,1,0,3,0.00
2013-1-6,49,41,30,35,32,28,93,71,51,30.16,30.02,3,0,8,0.01
2013-1-7,46,40,28,33,29,25,87,65,52,30.43,30.13,4,0,6,0.00
2013-1-8,51,35,23,37,29,20,93,80,58,30.42,30.32,2,0,5,0.00
2013-1-9,61,44,27,50,38,25,94,80,39,30.38,30.25,3,0,5,0.00
2013-1-10,58,48,34,35,31,27,79,53,38,30.55,30.38,2,0,4,0.00
2013-1-11,44,42,38,42,38,31,97,85,67,30.45,30.07,0,0,1,0.04
2013-1-12,56,45,40,51,44,39,99,95,83,30.15,30.08,1,0,1,0.00
2013-1-13,63,53,46,60,52,45,99,96,89,30.11,29.95,1,0,2,0.01
2013-1-14,60,54,43,60,52,42,99,93,80,30.26,29.94,2,0,3,0.12
2013-1-15,42,39,37,42,38,37,98,97,96,30.31,30.11,1,0,3,1.05
2013-1-16,42,39,36,42,39,36,98,98,96,30.13,29.86,1,0,2,0.31
2013-1-17,44,39,34,44,39,33,99,98,96,30.10,29.94,1,0,3,0.49
2013-1-18,42,34,27,34,27,20,98,76,43,30.47,30.09,1,0,5,0.01
2013-1-19,50,37,24,37,30,22,94,76,56,30.42,30.00,3,0,6,0.00
2013-1-20,59,47,34,36,27,12,83,49,26,30.04,29.85,5,1,7,0.00
2013-1-21,52,39,30,27,18,11,71,44,30,30.05,29.77,3,0,7,0.00
2013-1-22,32,24,18,12,3,-1,50,40,30,30.28,29.93,5,1,10,0.00
2013-1-23,32,22,10,19,7,1,86,54,32,30.34,30.11,2,0,7,0.00
2013-1-24,28,21,14,19,11,4,91,67,41,30.53,30.05,5,1,10,0.03
2013-1-25,25,19,11,20,13,4,89,80,58,30.53,30.06,1,0,4,0.00
2013-1-26,37,28,22,28,22,19,89,81,66,30.43,30.06,1,0,2,0.03
2013-1-27,38,28,19,27,23,16,92,81,62,30.59,30.42,1,0,4,0.00
2013-1-28,48,38,31,45,36,26,96,90,82,30.47,30.07,1,0,4,0.17
2013-1-29,73,60,47,59,52,45,92,76,60,30.10,29.94,2,1,7,0.00
2013-1-30,68,61,56,64,58,52,99,90,77,29.94,29.22,5,1,17,2.36
2013-1-31,58,42,32,57,29,18,99,62,45,29.90,29.22,5,2,13,0.08
2013-2-1,33,28,18,27,12,5,82,52,37,30.38,29.76,7,2,15,0.00
2013-2-2,35,25,17,26,16,6,93,71,48,30.38,29.99,1,0,3,0.00
2013-2-3,40,31,24,31,24,17,93,79,53,29.99,29.81,3,0,6,0.01
2013-2-4,38,32,22,24,19,13,82,61,51,30.09,29.88,2,0,5,0.00
2013-2-5,56,40,28,38,30,22,86,70,48,29.90,29.81,3,0,6,0.00
2013-2-6,54,40,28,34,30,25,93,69,43,30.33,29.90,3,0,8,0.00
2013-2-7,40,36,29,30,28,25,86,73,62,30.40,30.14,0,0,1,0.00
2013-2-8,50,39,33,42,33,25,96,81,58,30.14,29.74,7,1,15,0.27
2013-2-9,48,38,28,25,18,14,62,46,29,30.35,29.96,6,2,13,0.00
2013-2-10,45,33,20,33,21,15,90,64,41,30.48,30.21,2,0,6,0.02
2013-2-11,58,47,35,53,41,26,98,83,31,30.21,29.74,4,0,8,0.03
2013-2-12,61,50,43,33,29,26,64,44,31,29.96,29.80,5,1,8,0.00
2013-2-13,44,39,34,37,33,28,96,78,60,29.90,29.62,1,0,2,0.04
2013-2-14,52,38,28,34,29,26,97,74,42,30.01,29.78,2,0,4,0.01
2013-2-15,61,42,26,41,32,23,92,72,44,30.03,29.85,4,0,7,0.00
2013-2-16,41,37,30,36,29,17,94,72,55,29.98,29.81,3,0,5,0.00
2013-2-17,32,27,22,17,10,6,65,49,36,30.22,29.86,6,2,14,0.00
2013-2-18,47,32,16,24,16,7,83,54,31,30.37,30.15,2,0,6,0.00
2013-2-19,48,39,29,43,31,21,92,75,45,30.14,29.73,3,1,6,0.05
2013-2-20,46,36,30,22,18,14,57,47,32,30.13,29.86,5,1,11,0.00
2013-2-21,45,34,24,22,18,14,70,54,38,30.31,30.11,2,0,5,0.00
2013-2-22,38,34,32,29,25,20,77,70,61,30.35,30.21,0,0,1,0.01
2013-3-5,48,40,33,35,32,30,95,76,54,29.88,29.72,1,0,5,0.12
2013-3-6,33,33,33,32,32,31,97,97,95,29.72,29.57,0,0,0,0.01
2013-3-7,41,39,37,29,28,27,69,65,59,30.18,30.17,4,1,8,0.17
2013-3-8,47,40,36,31,28,25,73,62,53,30.27,30.16,6,2,11,0.00
2013-3-9,60,44,31,35,29,26,84,58,35,30.33,30.23,2,0,4,0.00
2013-3-10,65,46,28,38,31,25,92,60,33,30.30,30.16,2,0,4,0.00
2013-3-11,59,49,35,52,40,27,92,71,44,30.20,29.87,2,0,7,0.01
2013-3-12,65,56,43,59,48,31,99,78,49,29.93,29.67,3,1,7,1.23
2013-3-13,50,41,33,33,27,19,84,57,39,30.09,29.89,6,2,11,0.00
2013-3-14,51,39,29,23,19,16,63,45,29,30.16,30.03,6,2,12,0.00
2013-3-15,61,46,29,39,28,17,76,49,40,30.10,29.77,3,0,6,0.00
2013-3-16,69,52,41,57,45,35,95,77,50,29.85,29.57,3,0,5,0.29
2013-3-17,44,38,33,40,36,32,96,93,87,30.25,29.84,2,0,3,0.05
2013-3-18,34,33,32,33,32,32,97,97,96,30.27,29.89,0,0,1,0.41
2013-3-19,61,44,33,46,29,11,99,65,22,29.95,29.73,6,1,13,0.23
2013-3-20,56,44,33,24,18,12,47,35,26,30.00,29.74,4,1,9,0.00
2013-3-21,40,34,28,30,18,11,72,51,36,29.92,29.74,6,2,10,0.00
2013-3-22,52,37,24,26,18,12,65,47,31,29.99,29.86,3,0,6,0.00
2013-3-23,58,42,26,28,23,18,84,50,28,30.04,29.87,2,0,8,0.00
2013-3-24,41,35,32,32,27,22,96,73,48,29.98,29.63,2,0,3,0.01
2013-3-25,40,35,31,36,33,30,97,92,83,29.70,29.51,1,0,3,0.55
2013-3-26,46,39,31,34,30,27,90,70,53,30.03,29.71,5,1,8,0.05
2013-3-27,50,41,33,31,28,25,75,60,43,30.15,30.03,7,2,13,0.00
2013-3-28,50,42,36,30,28,25,73,56,46,30.24,30.11,6,2,12,0.00
2013-3-29,60,44,31,36,30,26,89,60,33,30.27,30.12,3,0,6,0.00
2013-3-30,64,47,29,37,31,26,91,58,31,30.22,30.05,2,0,5,0.00
2013-3-31,54,46,42,50,40,31,97,80,55,30.07,29.73,1,0,4,0.02
2013-4-1,65,53,43,47,39,24,95,61,40,29.98,29.74,5,1,12,0.00
2013-4-2,54,44,35,24,19,15,56,38,23,30.16,29.98,5,1,10,0.00
2013-4-3,57,41,26,26,19,15,82,45,22,30.35,30.16,5,1,8,0.00
2013-4-4,49,38,28,34,24,16,95,60,32,30.41,30.04,1,0,4,0.21
2013-4-5,66,50,35,46,36,31,97,66,31,30.04,29.82,3,1,7,0.27
2013-4-6,60,50,39,32,26,19,62,41,24,30.28,30.01,3,0,4,0.00
2013-4-7,74,56,37,49,40,30,85,57,39,30.23,29.97,3,1,5,0.00
2013-4-8,83,66,46,54,49,42,86,57,34,30.06,29.91,3,0,7,0.00
2013-4-9,88,74,58,61,56,51,81,55,37,30.06,29.92,2,0,6,0.00
2013-4-10,94,79,64,63,58,53,70,50,34,29.96,29.76,2,1,7,0.00
2013-4-11,88,75,62,64,59,55,81,60,41,29.83,29.68,3,1,7,0.00
2013-4-12,81,70,62,69,63,58,98,81,47,29.68,29.51,4,1,8,0.98
2013-4-13,74,67,59,43,36,30,35,31,28,29.92,29.78,2,0,6,0.00
2013-4-14,78,62,47,48,40,30,71,46,32,30.06,29.93,2,0,6,0.00
2013-4-15,61,56,52,57,53,46,97,89,60,30.24,30.05,1,0,2,0.30
2013-4-16,74,62,54,64,58,53,98,88,68,30.28,30.12,2,0,4,0.02
2013-4-17,85,69,58,66,61,57,97,79,46,30.18,30.05,3,0,5,0.03
2013-4-18,79,66,60,68,60,57,98,83,57,30.16,29.95,3,0,8,0.06
2013-4-19,75,67,58,68,62,44,97,85,60,29.94,29.58,3,1,6,0.55
2013-4-20,64,54,45,44,34,28,67,48,30,30.28,29.71,3,1,10,0.00
2013-4-21,57,46,35,38,33,30,87,62,43,30.55,30.28,2,0,4,0.00
2013-4-22,60,47,32,42,36,29,93,68,46,30.54,30.33,2,0,5,0.00
2013-4-23,68,54,47,50,44,39,88,70,52,30.35,30.08,1,0,3,0.00
2013-4-24,80,60,41,61,51,40,97,77,46,30.09,29.79,4,1,7,0.11
2013-4-25,59,57,55,51,48,44,77,69,64,30.01,29.96,3,2,4,0.00
2013-4-29,64,60,55,60,58,54,99,93,85,30.05,29.97,1,0,2,0.23
2013-4-30,64,58,54,59,56,53,98,91,81,30.25,30.04,1,0,4,0.01
2013-5-1,73,61,52,54,50,40,98,71,38,30.37,30.23,1,0,3,0.02
2013-5-2,71,58,47,52,48,43,89,69,43,30.38,30.27,1,0,3,0.00
2013-5-3,69,55,43,54,47,41,97,78,50,30.34,30.21,1,0,5,0.00
2013-5-4,65,53,43,54,47,40,91,80,64,30.29,30.12,1,0,2,0.00
2013-5-5,65,53,41,50,45,39,93,77,55,30.20,30.07,1,0,3,0.00
2013-5-6,58,54,50,58,52,48,99,94,79,30.12,29.94,1,0,3,0.36
2013-5-7,65,58,54,64,58,54,100,99,93,29.95,29.82,2,0,3,1.11
2013-5-8,62,56,50,60,56,50,100,97,87,29.98,29.91,1,0,1,0.11
2013-5-9,80,61,44,65,54,44,100,82,43,30.00,29.91,2,0,5,0.02
2013-5-10,85,68,52,66,60,51,98,78,46,30.00,29.83,3,0,5,0.22
2013-5-11,81,69,61,67,62,57,99,82,54,29.85,29.67,2,0,4,0.01
2013-5-12,68,61,48,59,43,33,79,55,31,30.02,29.72,3,1,6,0.00
2013-5-13,62,50,40,43,36,31,91,60,32,30.16,30.01,2,0,7,0.00
2013-5-14,72,54,35,48,40,33,95,64,35,30.21,29.99,2,0,6,0.00
2013-5-15,92,70,49,70,56,45,91,65,37,30.00,29.69,2,0,8,0.00
2013-5-16,86,74,66,69,62,54,97,69,47,29.91,29.76,3,0,6,0.27
2013-5-17,84,71,60,67,62,58,97,78,44,30.09,29.90,1,0,3,0.17
2013-5-18,65,62,61,64,62,60,99,98,97,30.17,30.08,0,0,0,0.17
2013-5-19,66,62,60,66,62,60,100,99,97,30.16,30.04,0,0,0,0.04
2013-5-20,83,71,64,74,68,64,100,91,66,30.08,29.94,2,0,4,0.00
2013-5-21,87,74,65,76,70,64,99,87,67,29.97,29.84,1,0,2,0.00
2013-5-22,90,75,67,76,70,65,99,85,58,29.91,29.79,2,0,7,0.02
2013-5-23,80,69,63,72,67,62,99,93,74,29.87,29.72,1,0,6,0.47
2013-5-24,65,59,50,62,51,36,99,75,47,30.14,29.74,4,1,10,0.00
2013-5-25,71,55,40,45,38,34,82,57,27,30.24,30.09,4,1,10,0.00
2013-5-26,78,59,44,50,42,39,91,58,25,30.23,30.10,2,0,5,0.00
2013-5-27,66,56,43,56,49,41,94,78,53,30.26,30.15,0,0,0,0.00
2013-5-28,89,68,52,72,61,50,97,81,53,30.18,30.03,2,0,6,0.00
2013-5-29,92,77,64,72,66,62,96,73,46,30.10,30.03,2,0,4,0.00
2013-5-30,94,77,64,73,67,62,94,72,43,30.15,30.08,2,0,4,0.00
2013-5-31,92,76,61,73,66,60,96,74,45,30.13,30.00,2,0,5,0.00
2013-6-1,91,77,63,74,68,62,96,75,54,30.02,29.89,2,0,4,0.00
2013-6-2,82,74,68,75,68,64,91,83,71,29.90,29.82,1,0,3,0.00
2013-6-3,82,72,68,74,68,65,99,88,65,29.93,29.78,1,0,2,0.17
2013-6-4,79,67,60,65,56,49,96,71,39,30.11,29.92,1,0,3,0.00
2013-6-5,80,68,57,67,60,54,94,77,59,30.13,30.00,1,0,5,0.00
2013-6-6,69,63,60,65,61,56,100,93,72,30.02,29.80,0,0,1,1.88
2013-6-7,70,66,64,70,66,64,100,100,98,29.80,29.58,0,0,1,0.66
2013-6-8,84,70,63,70,65,60,99,84,53,30.05,29.73,1,0,4,0.02
2013-6-9,82,70,60,75,67,60,99,92,77,30.15,30.03,1,0,2,1.52
2013-6-10,83,72,67,76,70,67,100,96,74,30.07,29.77,2,0,6,0.92
2013-6-11,85,73,64,70,66,63,100,80,52,29.86,29.79,3,0,7,0.00
2013-6-12,93,77,63,78,70,62,97,79,54,29.87,29.74,3,0,7,0.00
2013-6-13,84,74,68,75,68,58,97,83,64,29.77,29.49,3,0,7,0.03
2013-6-14,80,70,63,64,58,54,81,67,49,29.97,29.63,2,0,5,0.00
2013-6-15,86,70,57,66,60,54,96,72,42,30.07,29.95,1,0,5,0.00
2013-6-16,85,72,60,73,66,59,97,83,59,30.00,29.88,1,0,4,0.08
2013-6-17,88,72,65,76,68,62,99,91,65,29.94,29.85,3,0,7,0.34
2013-6-18,72,67,64,72,67,63,100,99,97,29.90,29.76,1,0,1,0.76
2013-6-19,76,67,60,71,65,60,100,94,79,30.12,29.86,1,0,1,0.04
2013-6-20,80,70,65,69,65,61,99,86,66,30.24,30.12,1,0,4,0.01
2013-6-21,84,71,59,68,62,56,96,75,53,30.26,30.18,2,0,4,0.00
2013-6-22,88,72,59,74,66,58,98,84,58,30.23,30.09,1,0,3,0.00
2013-6-23,88,76,68,77,71,67,98,85,64,30.16,30.05,1,0,4,0.00
2013-6-24,91,77,68,78,72,67,99,86,63,30.11,30.00,1,0,3,0.00
2013-6-25,94,80,68,77,72,67,97,80,52,30.03,29.88,1,0,2,0.00
2013-6-26,92,74,68,77,71,67,99,91,57,29.89,29.80,5,0,5,0.35
2013-6-27,85,73,67,75,70,66,100,91,68,29.83,29.61,2,0,3,0.06
2013-6-28,93,79,68,76,69,63,96,75,46,29.63,29.43,2,0,5,0.00
2013-6-29,90,76,64,72,66,61,93,73,49,29.66,29.50,1,0,4,0.00
2013-6-30,87,74,66,77,70,64,98,89,71,29.82,29.66,1,0,4,0.01
2013-7-1,83,75,70,76,72,69,99,91,77,29.93,29.80,1,0,4,0.06
2013-7-2,78,74,70,74,72,70,99,94,85,30.13,29.92,1,0,5,0.07
2013-7-3,84,74,71,79,73,70,100,97,77,30.20,30.11,1,0,3,0.02
2013-7-4,89,78,71,79,74,71,100,90,65,30.22,30.13,2,0,4,0.00
2013-7-5,90,78,70,79,74,69,99,88,66,30.20,30.10,2,0,4,0.01
2013-7-6,91,79,70,78,73,69,100,85,59,30.17,30.05,1,0,5,0.00
2013-7-7,91,77,70,78,72,69,98,87,63,30.09,29.97,3,0,7,0.00
2013-7-8,86,74,68,74,71,67,99,90,58,30.10,30.03,1,0,3,0.00
2013-7-9,86,76,68,78,73,68,100,91,76,30.08,29.98,0,0,2,0.01
2013-7-10,87,76,72,80,74,72,99,96,77,30.00,29.85,2,0,4,0.00
2013-7-11,83,74,70,78,73,70,100,96,80,29.89,29.82,1,0,1,0.00
2013-7-12,70,68,65,70,68,65,100,99,95,30.03,29.87,1,0,2,0.00
2013-7-13,82,73,65,75,71,65,100,94,77,30.21,30.02,1,0,3,0.01
2013-7-14,88,77,71,77,73,71,100,90,70,30.31,30.21,1,0,2,0.72
2013-7-15,93,79,68,80,74,68,100,85,56,30.29,30.17,1,0,3,0.00
2013-7-16,92,80,71,82,76,70,98,88,68,30.22,30.13,0,0,1,0.02
2013-7-17,88,80,73,82,77,72,98,91,72,30.19,30.07,2,0,3,0.16
2013-7-18,94,81,72,82,77,72,100,88,62,30.11,29.98,1,0,2,0.00
2013-7-19,95,81,73,83,77,73,99,87,64,30.00,29.85,1,0,4,0.00
2013-7-20,95,80,74,80,74,71,97,85,57,29.89,29.80,1,0,4,0.00
2013-7-21,91,76,70,78,73,69,99,90,60,29.92,29.85,5,0,5,0.30
2013-7-22,90,77,71,79,74,71,100,91,69,29.91,29.72,2,0,5,0.02
2013-7-23,90,78,71,76,72,70,98,83,57,29.73,29.62,1,0,3,0.00
2013-7-24,84,74,68,76,71,67,99,90,70,29.88,29.65,0,0,3,0.28
2013-7-25,79,70,63,69,64,60,98,85,64,30.02,29.86,1,0,2,0.00
2013-7-26,84,70,57,70,64,56,99,83,55,30.08,29.99,1,0,3,0.00
2013-7-27,76,71,64,73,69,63,99,93,84,30.02,29.89,0,0,2,0.02
2013-7-28,85,73,68,75,70,67,98,90,61,29.95,29.85,1,0,3,0.02
2013-7-29,84,71,61,70,63,54,98,77,45,30.14,29.95,1,0,4,0.00
2013-7-30,84,70,58,69,63,57,97,82,52,30.20,30.11,1,0,3,0.00
2013-7-31,80,70,64,72,67,63,98,92,75,30.12,29.98,0,0,0,0.02
2013-8-1,85,71,68,77,70,67,100,96,74,29.98,29.78,2,0,2,0.62
2013-8-2,87,73,63,72,67,63,100,83,53,29.95,29.85,1,0,2,0.00
2013-8-3,83,72,66,72,67,62,98,85,63,29.95,29.88,1,0,1,0.01
2013-8-4,83,70,62,68,63,58,98,80,47,30.02,29.89,2,0,6,0.00
2013-8-5,82,67,56,67,61,54,97,82,54,30.09,29.98,1,0,3,0.00
2013-8-6,80,71,65,73,68,64,99,91,75,30.01,29.95,1,0,2,0.02
2013-8-7,86,76,69,76,71,68,98,88,68,30.03,29.95,1,0,7,0.01
2013-8-8,84,75,70,77,73,69,99,93,75,30.00,29.94,1,0,4,0.02
2013-8-9,94,79,71,80,75,70,100,87,55,29.94,29.84,2,0,4,0.00
2013-8-10,80,75,72,76,74,72,99,94,86,30.07,29.92,1,0,5,0.19
2013-8-11,79,73,68,76,72,68,100,95,87,30.09,29.98,0,0,1,0.38
2013-8-12,88,76,69,77,73,68,100,89,63,30.00,29.88,1,0,1,0.00
2013-8-13,87,75,71,76,73,69,100,93,65,29.88,29.71,1,0,3,0.10
2013-8-14,76,67,57,70,58,52,96,76,54,30.09,29.79,1,0,4,0.01
2013-8-15,77,62,51,61,56,50,99,82,49,30.17,30.07,1,0,4,0.00
2013-8-16,76,63,51,63,58,50,99,84,57,30.18,30.10,1,0,3,0.00
2013-8-17,74,64,54,65,60,54,98,88,69,30.23,30.16,0,0,2,0.01
2013-8-18,66,64,61,66,63,60,100,98,95,30.22,30.15,0,0,0,1.41
2013-8-19,74,68,63,72,67,62,100,97,89,30.18,30.04,1,0,1,0.03
2013-8-20,85,73,65,76,70,65,100,91,68,30.15,30.06,1,0,3,0.00
2013-8-21,87,73,66,78,71,66,100,92,70,30.18,30.05,1,0,3,0.31
2013-8-22,86,74,66,76,69,65,99,87,62,30.07,29.93,1,0,2,0.00
2013-8-23,71,66,60,71,66,60,100,99,96,30.10,29.91,1,0,2,1.26
2013-8-24,79,65,54,69,61,54,100,89,61,30.30,30.10,0,0,2,0.00
2013-8-25,81,66,56,68,62,55,100,87,60,30.38,30.25,1,0,4,0.00
2013-8-26,86,70,58,71,64,58,100,83,50,30.29,30.01,1,0,3,0.00
2013-8-27,88,74,64,78,70,63,98,88,66,30.01,29.88,1,0,3,0.00
2013-8-28,75,73,71,74,71,68,100,95,82,29.93,29.78,0,0,1,0.61
2013-8-29,82,74,69,75,72,68,100,95,80,29.99,29.78,0,0,2,0.01
2013-8-30,87,74,65,75,70,64,100,90,65,30.01,29.86,2,0,4,0.00
2013-8-31,89,73,67,79,71,67,99,93,69,29.90,29.77,3,0,6,0.68
2013-9-1,85,73,66,77,71,66,100,95,70,29.83,29.74,1,0,3,0.01
2013-9-2,89,77,69,78,72,69,99,88,64,29.80,29.70,1,0,3,0.00
2013-9-3,86,74,68,74,70,62,98,87,62,29.92,29.72,1,0,3,0.00
2013-9-4,82,68,58,69,63,57,98,84,54,30.07,29.92,1,0,4,0.00
2013-9-5,86,69,56,70,63,56,99,83,54,30.10,29.97,1,0,2,0.00
2013-9-6,77,64,55,62,58,54,97,82,50,30.22,30.09,1,0,3,0.00
2013-9-7,81,65,52,69,61,52,99,87,62,30.12,29.91,1,0,3,0.00
2013-9-8,87,72,61,74,67,60,98,86,60,29.99,29.84,1,0,3,0.00
2013-9-9,78,70,65,70,65,59,97,85,68,30.16,29.99,1,0,4,0.00
2013-9-10,91,75,64,78,71,64,99,88,63,30.15,30.07,1,0,3,0.00
2013-9-11,92,78,68,79,74,67,100,88,64,30.12,29.98,1,0,3,0.00
2013-9-12,91,76,68,80,72,67,100,89,60,29.98,29.71,1,0,3,0.02
2013-9-13,78,69,59,68,61,53,95,76,46,29.92,29.69,2,0,4,0.00
2013-9-14,69,58,49,55,50,46,95,76,50,30.14,29.92,2,0,4,0.00
2013-9-15,78,60,45,64,55,44,99,84,55,30.22,30.06,2,0,5,0.00
2013-9-16,68,61,55,65,59,54,98,92,72,30.21,30.04,2,0,3,0.01
2013-9-17,69,57,49,58,53,47,98,86,65,30.39,30.21,1,0,1,0.00
2013-9-18,72,54,41,58,50,40,98,86,53,30.32,30.17,1,0,2,0.00
2013-9-19,77,62,51,65,58,50,98,87,64,30.18,30.06,1,0,3,0.00
2013-9-20,75,65,56,68,62,55,98,91,75,30.07,29.92,1,0,3,0.00
2013-9-21,67,66,61,67,65,61,99,98,96,29.92,29.65,1,0,3,0.40
2013-9-22,73,62,53,62,58,53,100,88,60,29.93,29.71,1,0,4,0.01
2013-9-23,69,56,46,57,51,45,99,86,59,30.08,29.93,1,0,2,0.00
2013-9-24,72,59,51,61,55,50,98,87,63,30.09,29.92,1,0,3,0.00
2013-9-25,71,59,50,61,56,49,99,89,65,29.96,29.86,0,0,0,0.00
2013-9-26,75,62,54,60,57,53,97,84,53,30.06,29.88,1,0,2,0.00
2013-9-27,73,59,47,62,55,47,99,89,63,30.20,30.05,1,0,3,0.00
2013-9-28,65,60,56,59,58,55,98,91,79,30.27,30.18,0,0,0,0.00
2013-9-29,73,60,51,58,55,50,99,85,54,30.18,30.03,1,0,3,0.00
2013-9-30,76,60,47,62,55,46,99,86,58,30.08,29.95,1,0,3,0.00
2013-10-1,80,66,57,65,61,57,98,85,55,30.06,29.97,1,0,1,0.00
2013-10-2,84,66,54,65,60,53,99,83,50,30.08,29.99,1,0,4,0.00
2013-10-3,81,67,56,70,63,56,98,89,65,30.10,30.02,0,0,2,0.00
2013-10-4,86,69,57,70,64,57,100,85,53,30.08,29.99,1,0,3,0.00
2013-10-5,88,71,59,71,65,58,99,84,55,30.08,29.97,1,0,4,0.00
2013-10-6,85,71,60,70,65,59,99,83,54,30.00,29.87,2,0,5,0.00
2013-10-7,71,67,56,69,63,49,99,88,72,30.03,29.74,1,0,5,0.71
2013-10-8,66,55,46,54,50,45,97,83,59,30.25,30.03,1,0,3,0.00
2013-10-9,59,53,49,55,51,48,98,93,83,30.28,30.18,0,0,1,0.27
2013-10-10,57,55,52,57,54,51,99,99,98,30.18,29.96,0,0,2,0.94
2013-10-11,66,59,56,63,58,56,99,95,85,29.97,29.91,1,0,4,0.07
2013-10-12,63,61,59,63,61,59,100,98,95,30.12,29.95,1,0,2,0.07
2013-10-13,61,59,58,61,59,58,100,99,98,30.27,30.12,1,0,1,0.18
2013-10-14,66,59,54,62,58,53,100,95,81,30.30,30.19,1,0,1,0.00
2013-10-15,70,57,48,60,54,48,100,91,65,30.21,30.07,0,0,0,0.01
2013-10-16,71,62,57,64,60,56,97,91,78,30.07,29.90,1,0,2,0.00
2013-10-17,72,63,57,67,61,56,100,94,79,29.89,29.73,1,0,6,0.02
2013-10-18,68,57,48,56,48,43,95,73,47,30.01,29.81,3,0,3,0.00
2013-10-19,62,52,45,56,50,44,98,91,75,29.98,29.77,1,0,2,0.00
2013-10-20,64,52,40,49,41,36,92,69,40,30.09,29.86,1,0,4,0.00
2013-10-21,69,50,35,50,43,34,98,80,46,30.14,29.94,2,0,4,0.00
2013-10-22,71,57,45,54,48,44,98,75,49,29.94,29.77,2,0,6,0.01
2013-10-23,59,49,43,51,43,34,97,81,58,29.92,29.64,2,0,6,0.29
2013-10-24,55,45,38,37,34,28,83,65,47,30.15,29.92,2,0,4,0.00
2013-10-25,55,42,33,34,31,28,89,66,39,30.33,30.14,2,0,4,0.00
2013-10-26,58,42,28,37,32,26,95,70,40,30.31,29.95,2,0,5,0.00
2013-10-27,63,48,36,43,39,34,93,74,47,30.12,29.96,1,0,6,0.00
2013-10-28,65,47,34,49,41,33,96,81,51,30.26,30.12,1,0,3,0.00
2013-10-29,67,51,40,50,45,38,97,81,53,30.36,30.25,1,0,4,0.00
2013-10-30,68,55,50,60,52,47,97,90,73,30.31,30.10,0,0,1,0.03
2013-10-31,68,60,52,62,57,51,98,89,76,30.15,29.75,1,0,5,0.00
2013-11-1,77,68,57,64,60,54,96,78,46,29.75,29.56,2,1,9,0.06
2013-11-2,68,57,47,56,45,37,97,69,39,29.89,29.61,3,0,7,0.00
2013-11-3,60,50,35,41,35,29,86,59,34,30.39,29.89,3,0,6,0.00
2013-11-4,48,38,32,31,29,26,90,70,48,30.61,30.39,1,0,2,0.00
2013-11-5,54,44,32,45,37,29,93,77,56,30.61,30.46,1,0,1,0.00
2013-11-6,68,55,48,54,49,45,94,83,60,30.46,30.06,2,0,4,0.00
2013-11-7,64,52,44,60,44,28,98,78,47,30.09,29.87,4,1,9,0.02
2013-11-8,53,43,31,32,28,25,85,56,36,30.31,30.09,4,1,7,0.00
2013-11-9,57,41,26,34,30,24,93,67,41,30.35,30.06,2,0,6,0.00
2013-11-10,67,52,39,40,32,28,72,50,26,30.24,29.95,4,1,10,0.00
2013-11-11,61,46,33,33,31,27,84,57,33,30.30,30.01,3,0,4,0.00
2013-11-12,47,40,31,37,26,17,75,56,46,30.41,29.93,5,1,8,0.00
2013-11-13,44,35,28,22,19,16,75,53,36,30.51,30.39,4,1,10,0.00
2013-11-14,62,42,25,29,22,14,84,48,23,30.39,30.21,2,0,5,0.00
2013-11-15,61,46,29,46,31,22,95,59,30,30.26,30.15,2,0,3,0.10
2013-11-16,54,48,40,51,47,40,98,95,88,30.29,30.21,1,0,2,0.08
2013-11-17,60,55,51,60,55,50,99,98,96,30.21,29.75,2,0,3,0.02
2013-11-18,66,59,50,61,42,28,98,55,31,29.93,29.69,3,1,9,0.06
2013-11-19,50,44,34,31,29,27,79,56,44,30.35,29.94,3,1,8,0.00
2013-11-20,46,36,31,29,27,24,90,71,48,30.53,30.35,2,0,3,0.00
2013-11-21,48,42,34,41,36,27,88,79,71,30.55,30.38,0,0,1,0.00
2013-11-22,66,55,45,56,50,41,90,81,70,30.38,29.99,1,0,2,0.00
2013-11-23,60,49,34,54,32,17,82,55,29,30.20,29.99,4,1,10,0.00
2013-11-24,34,27,21,23,9,6,65,46,35,30.54,30.20,6,2,11,0.00
2013-11-25,36,28,18,20,14,9,85,60,39,30.57,30.33,1,0,4,0.00
2013-11-26,38,35,34,37,29,18,98,81,52,30.34,29.59,0,0,1,1.09
2013-11-27,42,38,29,42,32,15,98,79,56,30.09,29.50,6,2,12,0.16
2013-11-28,39,30,21,23,19,14,88,64,48,30.45,30.09,2,0,4,0.00
2013-11-29,43,30,20,28,22,18,93,75,48,30.71,30.43,1,0,4,0.00
2013-11-30,39,28,19,27,22,17,93,79,58,30.70,30.37,1,0,2,0.00
2013-12-1,52,35,20,36,27,18,93,76,46,30.37,30.00,0,0,1,0.00
2013-12-2,48,42,39,38,36,33,86,77,65,30.00,29.84,0,0,1,0.00
2013-12-3,56,44,35,42,38,33,93,81,60,29.98,29.86,1,0,3,0.00
2013-12-4,60,49,39,52,45,36,91,87,74,30.05,29.96,1,0,4,0.00
2013-12-5,65,58,52,62,56,49,95,91,85,30.04,29.91,2,0,2,0.00
2013-12-6,65,54,42,64,53,42,99,97,92,30.11,29.85,4,0,4,0.64
2013-12-7,45,38,30,42,35,26,98,87,70,30.51,30.08,3,0,5,0.08
2013-12-8,32,30,28,32,28,24,97,90,76,30.54,30.27,0,0,2,0.00
2013-12-9,39,35,32,38,34,32,98,98,97,30.30,30.01,0,0,1,0.06
2013-12-10,40,34,29,40,31,20,99,89,65,30.22,29.98,3,0,5,0.23
2013-12-11,43,35,27,26,22,17,78,59,45,30.39,30.22,1,0,5,0.02
2013-12-12,37,32,27,23,15,8,70,49,31,30.40,30.23,2,0,7,0.00
2013-12-13,46,36,27,26,18,12,73,49,35,30.30,30.20,3,0,6,0.01
2013-12-14,36,34,32,35,31,23,97,89,65,30.28,29.73,0,0,1,0.33
2013-12-15,48,39,33,38,32,26,98,78,55,29.95,29.62,3,0,7,0.01
2013-12-16,44,38,32,32,30,28,82,71,58,30.14,29.94,1,0,6,0.00
2013-12-17,51,37,26,40,32,24,94,83,62,30.11,29.88,2,0,5,0.00
2013-12-18,43,37,32,33,24,21,88,58,45,30.20,29.98,2,0,7,0.00
2013-12-19,63,45,30,34,28,19,80,54,32,30.18,30.07,3,0,6,0.00
2013-12-20,60,50,40,42,35,29,74,58,41,30.11,29.99,1,0,4,0.00
2013-12-21,69,58,47,61,51,41,87,77,66,30.02,29.89,3,1,6,0.00
2013-12-22,69,64,59,65,61,57,97,89,71,29.98,29.81,4,1,7,0.14
2013-12-23,62,55,39,61,51,28,99,86,65,30.19,29.90,3,0,5,0.24
2013-12-24,41,34,23,29,22,9,81,62,43,30.47,30.17,4,1,8,0.00
2013-12-25,32,25,17,19,14,11,84,65,49,30.56,30.36,1,0,2,0.00
2013-12-26,48,32,18,29,21,15,90,67,38,30.36,30.20,3,0,6,0.00
2013-12-27,50,36,22,27,23,19,89,61,36,30.42,30.31,1,0,5,0.00
2013-12-28,57,41,25,33,26,21,86,60,33,30.35,30.11,2,0,3,0.00
2013-12-29,51,45,40,49,41,30,99,87,56,30.11,29.56,2,0,4,0.02
2013-12-30,49,42,34,40,35,29,90,77,57,30.15,29.81,2,0,3,0.00
2013-12-31,46,36,28,31,25,19,94,68,41,30.32,30.12,4,0,7,0.00
2014-1-1,48,35,25,30,25,19,88,66,49,30.38,30.09,2,0,3,0.00
2014-1-2,38,32,28,33,29,25,96,88,72,30.09,29.59,0,0,1,0.01